Regional Weather Roundup
Issued by NWS

Home | Current Version | Previous Version | Text Only | Print | Product List | Glossary Off
Versions: 1 2 3 4 5 6 7 8 9 10 11 12 13 14 15 16 17 18 19 20 21 22 23 24 25 26 27 28 29 30 31 32 33 34 35 36 37 38 39 40 41 42 43 44 45 46 47 48 49 50

000
ASUS43 KFSD 100610
RWRSD

WEATHER ROUNDUP FOR SOUTH DAKOTA
NATIONAL WEATHER SERVICE SIOUX FALLS SD
100 AM CDT THU JUL 10 2014

NOTE: "FAIR" INDICATES FEW OR NO CLOUDS BELOW 12,000 FEET WITH NO
SIGNIFICANT WEATHER AND/OR OBSTRUCTIONS TO VISIBILITY.


SDZ001>005-009-010-012>017-100700-
NORTHWEST AND NORTH CENTRAL SOUTH DAKOTA

CITY           SKY/WX    TMP DP  RH WIND       PRES   REMARKS
BUFFALO          N/A     62  55  77 SE14      29.89F
FAITH            N/A     62  56  80 SE10      29.96F
MOBRIDGE       CLEAR     64  57  78 SE8       29.95R
$$

SDZ012>016-024>037-041>051-057-063-072>074-100700-
SOUTHWEST AND SOUTH CENTRAL SOUTH DAKOTA

CITY           SKY/WX    TMP DP  RH WIND       PRES   REMARKS
RAPID CTY ARPT CLEAR     60  55  83 SE5       29.98S
PIERRE         CLEAR     59  54  83 SE6       29.96S
CUSTER         CLOUDY    59  56  89 E7        30.09S
ELLSWORTH AFB  CLEAR     63  58  82 S7        29.98S
PHILIP         PTCLDY    57  54  89 E5        29.96S
PINE RIDGE     PTCLDY    62  58  86 NE7       29.96F
WINNER         FAIR      62  58  86 SE7       29.98F
$$

SDZ004>011-016>023-039-040-100700-
NORTHEAST SOUTH DAKOTA

CITY           SKY/WX    TMP DP  RH WIND       PRES   REMARKS
ABERDEEN       CLEAR     58  54  86 SE5       29.98S
WATERTOWN      CLEAR     62  53  72 CALM      30.02
SISSETON         N/A     58  56  93 S5        29.99S
$$

SDZ017-020-022-023-036>040-048>070-100700-
SOUTHEAST SOUTH DAKOTA

CITY           SKY/WX    TMP DP  RH WIND       PRES   REMARKS
SIOUX FALLS    CLEAR     66  58  75 E5        30.01S
HURON          CLEAR     65  58  78 SE7       29.98S
CHAMBERLAIN    CLEAR     58  54  88 SE3       29.99S
MITCHELL       CLEAR     65  60  84 S5        29.99S
YANKTON        CLEAR     63  59  88 SE5       30.02S
$$

ABBREVIATIONS USED IN REMARKS
   TC - TEMPERATURE IN CELSIUS
  WCI - WIND CHILL INDEX
   HX - HEAT INDEX
  VSB - VISIBILITY



USA.gov is the U.S. government's official web portal to all federal, state and local government web resources and services.